Lexington Weather

Lexington, Massachusetts, USA

77°F
7/25/2024 11:43am 
  • Lexington Conditions: Mostly cloudy
  • Temperature: 76.6°F / 24.8°CWarmer 0.7°F than last hour.
  • Dew Point: 71.8°FDecreased 0.3°Fsince last hour.
  • Relative Humidity: 85%Decreased 3.0% since last hour.
  • Wind: Wind from S S 3 mph, 10-min avg: 3 mph, gust: 11 mph
  • Barometer: 29.94 inFalling 0.02  inHg/hr Falling Slowly
  • Visibility: 10 miles
  • Rain Today: 0.00 in
  •   

Regional Weather Roundup
for Boston, MA

        
000
ASUS41 KBOX 211210
RWRBOX

REGIONAL WEATHER ROUNDUP
NATIONAL WEATHER SERVICE BOSTON/NORTON MA
800 AM EDT SUN JUL 21 2024

NOTE:  "FAIR" INDICATES FEW OR NO CLOUDS BELOW 12,000 FEET WITH NO 
SIGNIFICANT WEATHER AND/OR OBSTRUCTIONS TO VISIBILITY.

MAZALL-211300-
EASTERN MASSACHUSETTS
  
CITY           SKY/WX    TMP DP  RH WIND       PRES   REMARKS
BOSTON         MOSUNNY   75  64  68 W8        30.00R                  
6HR MIN TEMP:  73; 6HR MAX TEMP:  75;                                

BEVERLY        SUNNY     74  64  71 NW8       29.99S                  
LAWRENCE       SUNNY     72  63  73 NW6       30.02R                  
BEDFORD        SUNNY     73  65  75 NW6       30.00R                  
NORWOOD        MOSUNNY   77  69  76 SW6       30.01R                  
MARSHFIELD     MOSUNNY   75  66  73 VRB7      30.00S                  
PLYMOUTH       PTSUNNY   74  66  76 W8        30.00S                  
TAUNTON        MOSUNNY   76  66  71 MISG      30.00S                  
NEW BEDFORD    MOSUNNY   74  68  81 SW5       30.01S                  
$$

MAZALL-211300-
CAPE COD AND THE ISLANDS
  
CITY           SKY/WX    TMP DP  RH WIND       PRES   REMARKS
FALMOUTH       NOT AVBL                                               
HYANNIS        CLOUDY    72  68  87 SW6       30.00S                  
CHATHAM        CLOUDY    73  67  81 VRB3      30.01S                  
PROVINCETOWN   PTSUNNY   72  67  84 W12       30.01R                  
NANTUCKET      CLOUDY    74  69  85 W12       30.02R                  
MARTHAS VNYRD  CLOUDY    72  66  81 VRB5      30.01F                  
$$
 
MAZALL-211300-
CENTRAL AND WESTERN MASSACHUSETTS
  
CITY           SKY/WX    TMP DP  RH WIND       PRES   REMARKS
WORCESTER      SUNNY     71  61  70 NW6       30.05R                  
6HR MIN TEMP:  67; 6HR MAX TEMP:  71;                                

FITCHBURG      SUNNY    N/A N/A N/A NW6       30.02S                  
ORANGE         SUNNY     70  62  76 CALM      30.05R                  
SPRINGFIELD    SUNNY     72  64  78 CALM      30.00R                  
WESTFIELD      MOSUNNY   71  64  78 CALM      30.03R                  
NORTH ADAMS    SUNNY     63  62  97 CALM      30.06R                  
PITTSFIELD     SUNNY     66  62  87 CALM      30.06R                  
$$
 
RIZALL-211300-
RHODE ISLAND
  
CITY           SKY/WX    TMP DP  RH WIND       PRES   REMARKS
PROVIDENCE     MOSUNNY   74  67  78 W7        30.02R                  
6HR MIN TEMP:  70; 6HR MAX TEMP:  74; 6HR PCP: TRACE;                

NEWPORT        MOSUNNY   72  67  84 CALM      30.02S                  
BLOCK ISLAND   CLOUDY    73  64  73 CALM        N/A                   
SMITHFIELD     MOSUNNY   71  70  96 W6        30.03S                  
WESTERLY       CLOUDY    73  67  81 CALM      30.02S                  
$$
 
CTZALL-211300-
CONNECTICUT
  
CITY           SKY/WX    TMP DP  RH WIND       PRES   REMARKS
BRADLEY INTL   MOSUNNY   76  66  71 N3        30.03R                  
6HR MIN TEMP:  70; 6HR MAX TEMP:  76;                                

HARTFORD       SUNNY     75  68  78 CALM      30.02R                  
PLAINVILLE     SUNNY     72  69  88 CALM      30.02S                  
BRIDGEPORT     PTSUNNY   75  66  73 NW3       30.02R                  
DANBURY        SUNNY     76  67  73 CALM      30.05R                  
GROTON         PTSUNNY   72  69  90 S3        30.01S                  
NEW HAVEN      PTSUNNY   76  68  76 W3        30.02S                  
CHESTER        MOSUNNY   73  70  88 CALM      30.04R                  
MERIDEN        PTSUNNY   72  67  84 CALM      30.03R                  
WILLIMANTIC    SUNNY     71  67  87 CALM      30.03R                  
OXFORD         SUNNY     71  67  87 NW3       30.06R                  
$$

MEZ002-015-021-024-NHZ003-005-008-011-012-014-VTZ005-008-211300-
NORTHERN NEW ENGLAND
  
CITY           SKY/WX    TMP DP  RH WIND       PRES   REMARKS
PORTLAND ME    MOSUNNY   72  62  71 NW7       29.99R                  
6HR MIN TEMP:  62; 6HR MAX TEMP:  72;                                

BANGOR ME      CLOUDY    65  55  70 NW7       29.99R                  
CONCORD NH     MOSUNNY   69  61  75 CALM      30.01S                  
MANCHESTER NH  MOSUNNY   75  59  57 N8        30.00R                  
NASHUA NH      SUNNY     72  65  78 NW8       30.02R                  
PORTSMOUTH NH  MOSUNNY   73  61  66 W6        29.98R                  
JAFFREY NH     SUNNY     69  63  81 CALM      30.05R                  
KEENE NH       FOG       63  63 100 SW3       30.04S VSB 1/4          
BURLINGTON VT  PTSUNNY   67  61  81 NW6       30.05R                  
MT. WASHINGTON LGT RAIN  46  46 100 NW30        N/A  VSB 0            
$$

NYZ052-076-211300-
EASTERN NEW YORK
  
CITY           SKY/WX    TMP DP  RH WIND       PRES   REMARKS
ALBANY         MOSUNNY   70  56  61 W6        30.04R                  
6HR MIN TEMP:  61; 6HR MAX TEMP:  70;                                

NEW YORK CITY  MOSUNNY   77  65  66 NW6       30.02R                  
6HR MIN TEMP:  76; 6HR MAX TEMP:  78; 6HR PCP: TRACE;                

$$
 
ANZALL-211300-
MARINE OBSERVATIONS
  
STATION/POSITION TIME  TEMP    WIND        PRES    VSBY  WAVE
                       AIR SEA DIR/SP/G                  HT/PER
                 (UTC) (F)     (DEG/KT/KT) (MB)    (MI)  (FT/S)
BOSTON BUOY      1140   65 63  270/  6/  8 1016.2R
BUZZARDS BAY     1100   70     250/ 15/ 16 1016.6R
NANTUCKET SOUND  1150   74 75  290/ 12/ 14 1015.9R         1/ 2
MASS BAY-STELLWA 1004   64 60  250/  8/  8 1015.1R  1 7/8  1/ 8
ISLE OF SHOALS   1100   68     290/ 11/ 11 1014.4R
S OF BLOCK IS    1156      73                N/A           3/ 8
$$

......................KEY.........................
  SKY/WX - SKY CONDITION/PRESENT WEATHER
  TMP    - TEMPERATURE IN FAHRENHEIT
  DWPT   - DEWPOINT IN FAHRENHEIT
  RH     - RELATIVE HUMIDITY IN PERCENT
  WIND   - DIRECTION AND SPEED IN MPH
  PRES   - MEAN SEA LEVEL PRESSURE IN INCHES OF HG
  WCI    - WIND CHILL INDEX
  VSB    - VISIBILITY IN MILES
  HX     - HEAT INDEX
  TC     - TEMPERATURE IN CELSIUS
  VRB    - VARIABLE WIND DIRECTION
  N/A    - NOT AVAILABLE
  
      

Other recent Regional Weather Roundups

Thu Jul 25, 11:10am EDT

Thu Jul 25, 10:10am EDT

Thu Jul 25, 9:10am EDT

Thu Jul 25, 8:10am EDT

Thu Jul 25, 7:10am EDT

Thu Jul 25, 6:10am EDT

Thu Jul 25, 5:10am EDT

Thu Jul 25, 4:10am EDT

Thu Jul 25, 3:10am EDT

Thu Jul 25, 2:10am EDT

Thu Jul 25, 1:10am EDT

Thu Jul 25, 12:10am EDT

Wed Jul 24, 11:10pm EDT

Wed Jul 24, 10:10pm EDT

Wed Jul 24, 9:10pm EDT

Wed Jul 24, 8:10pm EDT

Wed Jul 24, 7:10pm EDT

Wed Jul 24, 6:10pm EDT

Wed Jul 24, 5:10pm EDT

Wed Jul 24, 4:10pm EDT

Wed Jul 24, 3:10pm EDT

Wed Jul 24, 2:10pm EDT

Wed Jul 24, 1:10pm EDT

Wed Jul 24, 12:10pm EDT

Wed Jul 24, 11:10am EDT

Wed Jul 24, 10:10am EDT

Wed Jul 24, 9:10am EDT

Wed Jul 24, 8:10am EDT

Wed Jul 24, 7:10am EDT

Wed Jul 24, 6:10am EDT

Wed Jul 24, 5:10am EDT

Wed Jul 24, 4:10am EDT

Wed Jul 24, 3:10am EDT

Wed Jul 24, 2:10am EDT

Wed Jul 24, 1:10am EDT

Wed Jul 24, 12:10am EDT

Tue Jul 23, 11:10pm EDT

Tue Jul 23, 10:10pm EDT

Tue Jul 23, 9:10pm EDT

Tue Jul 23, 8:10pm EDT

Tue Jul 23, 7:10pm EDT

Tue Jul 23, 6:10pm EDT

Tue Jul 23, 5:10pm EDT

Tue Jul 23, 4:10pm EDT

Tue Jul 23, 3:10pm EDT

Tue Jul 23, 2:10pm EDT

Tue Jul 23, 1:10pm EDT

Tue Jul 23, 12:10pm EDT

Tue Jul 23, 11:10am EDT

Tue Jul 23, 10:10am EDT

Tue Jul 23, 10:10am EDT

Tue Jul 23, 9:10am EDT

Tue Jul 23, 8:10am EDT

Tue Jul 23, 7:10am EDT

Tue Jul 23, 6:10am EDT

Tue Jul 23, 5:10am EDT

Tue Jul 23, 4:10am EDT

Tue Jul 23, 3:10am EDT

Tue Jul 23, 2:10am EDT

Tue Jul 23, 1:10am EDT

Tue Jul 23, 12:10am EDT

Mon Jul 22, 11:10pm EDT

Mon Jul 22, 10:10pm EDT

Mon Jul 22, 9:10pm EDT

Mon Jul 22, 8:10pm EDT

Mon Jul 22, 7:10pm EDT

Mon Jul 22, 6:10pm EDT

Mon Jul 22, 5:10pm EDT

Mon Jul 22, 4:10pm EDT

Mon Jul 22, 3:10pm EDT

Mon Jul 22, 2:10pm EDT

Mon Jul 22, 1:10pm EDT

Mon Jul 22, 12:10pm EDT

Mon Jul 22, 11:10am EDT

Mon Jul 22, 10:10am EDT

Mon Jul 22, 9:10am EDT

Mon Jul 22, 8:10am EDT

Mon Jul 22, 7:10am EDT

Mon Jul 22, 6:10am EDT

Mon Jul 22, 5:10am EDT

Mon Jul 22, 4:10am EDT

Mon Jul 22, 3:10am EDT

Mon Jul 22, 2:10am EDT

Mon Jul 22, 1:10am EDT

Mon Jul 22, 12:10am EDT

Sun Jul 21, 11:10pm EDT

Sun Jul 21, 10:10pm EDT

Sun Jul 21, 9:10pm EDT

Sun Jul 21, 8:10pm EDT

Sun Jul 21, 7:10pm EDT

Sun Jul 21, 6:10pm EDT

Sun Jul 21, 5:10pm EDT

Sun Jul 21, 4:10pm EDT

Sun Jul 21, 3:10pm EDT

Sun Jul 21, 2:10pm EDT

Sun Jul 21, 1:10pm EDT

Sun Jul 21, 12:10pm EDT

Sun Jul 21, 11:10am EDT

Sun Jul 21, 10:10am EDT

Sun Jul 21, 9:10am EDT

Sun Jul 21, 7:10am EDT

Sun Jul 21, 6:10am EDT

Sun Jul 21, 5:10am EDT

Sun Jul 21, 4:10am EDT

Sun Jul 21, 3:10am EDT

Sun Jul 21, 2:10am EDT

Sun Jul 21, 1:10am EDT

Sun Jul 21, 12:10am EDT

Sat Jul 20, 11:10pm EDT

Sat Jul 20, 10:10pm EDT

Sat Jul 20, 9:10pm EDT

Sat Jul 20, 8:10pm EDT

Sat Jul 20, 7:10pm EDT

Sat Jul 20, 6:10pm EDT

Sat Jul 20, 5:10pm EDT

Sat Jul 20, 4:10pm EDT

Sat Jul 20, 3:10pm EDT

Sat Jul 20, 2:10pm EDT

Sat Jul 20, 1:10pm EDT

Sat Jul 20, 12:10pm EDT

Sat Jul 20, 11:10am EDT

Sat Jul 20, 10:10am EDT

Sat Jul 20, 9:10am EDT

Sat Jul 20, 8:10am EDT

Sat Jul 20, 7:10am EDT

Sat Jul 20, 6:10am EDT

Sat Jul 20, 5:10am EDT

Sat Jul 20, 4:10am EDT

Sat Jul 20, 3:10am EDT

Sat Jul 20, 2:10am EDT

Sat Jul 20, 1:10am EDT

Sat Jul 20, 12:10am EDT

Fri Jul 19, 11:10pm EDT

Fri Jul 19, 10:10pm EDT

Fri Jul 19, 9:10pm EDT

Fri Jul 19, 8:10pm EDT

Fri Jul 19, 7:10pm EDT

Fri Jul 19, 6:10pm EDT

Fri Jul 19, 5:10pm EDT

Fri Jul 19, 4:10pm EDT

Fri Jul 19, 3:10pm EDT

Fri Jul 19, 2:10pm EDT

Fri Jul 19, 1:10pm EDT

Fri Jul 19, 12:10pm EDT

Fri Jul 19, 11:10am EDT

Fri Jul 19, 10:10am EDT

Fri Jul 19, 9:10am EDT

Fri Jul 19, 8:10am EDT

Fri Jul 19, 7:10am EDT

Fri Jul 19, 6:10am EDT

Fri Jul 19, 5:10am EDT

Fri Jul 19, 4:10am EDT

Fri Jul 19, 3:10am EDT

Fri Jul 19, 2:10am EDT

Fri Jul 19, 1:10am EDT

Fri Jul 19, 12:10am EDT

Thu Jul 18, 11:10pm EDT

Thu Jul 18, 10:10pm EDT

Thu Jul 18, 9:10pm EDT

Thu Jul 18, 8:10pm EDT

Thu Jul 18, 7:10pm EDT

Thu Jul 18, 6:10pm EDT

Thu Jul 18, 5:10pm EDT

Thu Jul 18, 4:10pm EDT

Thu Jul 18, 3:10pm EDT

Thu Jul 18, 2:10pm EDT

Thu Jul 18, 1:10pm EDT

Thu Jul 18, 12:10pm EDT